Terug naar catalogus

IUS DEB

ActiefHEO
NORAD 26078·DEBRIS·🇺🇸 United States

Gelanceerd Jul 23, 1999 vanaf Cape Canaveral Space Force Station

Loading…

Volgende Passages (komende 24 uur)

TLE

VersSource: Space-Track

Epoch: Sep 13, 2026, 22:47 UTC

1 26078U 99040F   26256.94996061  .00005326  00000-0  74106-3 0  9997
2 26078  28.4068 127.4515 4386647 106.6382 304.8299  6.67322788316983

Volg IUS DEB in realtime met AllMySat

Download on the App Store